Location: Bemmer
(51.5498°N, 5.6249°E)
Time: 17:38:28
(UTC+00:00)

Cosmos 2333 Rocket - Pass Details

Date: 03 March 2021
Orbit: 837 x 864 km, 70.8° (Epoch: 13 April)

Event Time Altitude Azimuth Distance (km) Brightness Sun altitude
Rises 20:31:42 0° 222° (SW) 3,396 5.5 -29.4°
Reaches altitude 10° 20:34:10 10° 227° (SW) 2,468 4.8 -29.7°
Maximum altitude 20:39:45 58° 306° (NW) 987 2.7 -30.4°
Drops below altitude 10° 20:45:26 10° 26° (NNE) 2,501 4.7 -31.2°
Sets 20:47:58 0° 30° (NNE) 3,444 5.4 -31.5°
